Weather in Al-Bayda

Libya     32°45′43″N   21°45′26″E
temp.,
°C
wind,
m/s
gust,
m/s
humid.,
%
clouds,
%
prec.,
mm/h
press.,
hPa
HPBL,
m
17 may, tue
tue1723:00+16e11370 0.0 102111
02:00+16s22260 0.0 101911
05:00+16sw33240 0.0 101811
08:00+22w34244 0.0 1019350
11:00+26nw44171 0.0 10181036
14:00+27nnw54180 0.0 10171125
17:00+26n43200 0.0 1016590
20:00+20e44270 0.0 101639
18 may, wed
wed1823:00+20se33260 0.0 101613
02:00+18sse22280 0.0 101413
05:00+17sse32330 0.0 101415
08:00+24sse35250 0.0 1014411
11:00+27wsw25200 0.0 10142237
14:00+25n65310 0.0 1014983
17:00+21nne67380 0.0 1014445
20:00+17nne35520 0.0 1015114
19 may, thu
thu1923:00+15nne33600 0.0 101639
02:00+14nne22810 0.0 101624
05:00+13nne22900 0.0 101727
08:00+17n68798 0.0 1018527
11:00+20nne67643 0.0 1019593
14:00+21nne75600 0.0 1018781
17:00+19ne87728 0.0 1018657
20:00+15nne688899 0.0 1020518
20 may, fri
fri2023:00+13nne579275 0.1 1021446
02:00+12nne9128324 0.1 1021582
05:00+12nne10137952 0.0 1021684
08:00+14nne12136719 0.0 1022966
11:00+16nne1314572 0.0 10221105
14:00+17nne1314571 0.0 10221108
17:00+15nne1214560 0.0 10221167
20:00+13nne8117221 0.0 1022662
21 may, sat
sat2123:00+11n47810 0.0 1022158
02:00+11wnw35835 0.0 102067
05:00+11w489517 0.1 1019189
08:00+15wnw78697 0.7 1019869
11:00+18nw78524 0.3 10191390
14:00+19nw88455 0.3 10181600
17:00+17wnw910551 0.1 10171200
20:00+14wnw7109117 0.3 1018482